This demonstration page uses our WeatherBlox Daily Observations layout. Learn more.

Left ArrowRight Arrow

Hourly Observations for March 6, 2022

Temp ( °F °C ) Dew Point ( °F °C ) Humidity (%) Winds ( mph kmh ) Pressure ( in mb ) Visibility ( mi km ) Precip ( " mm )
12:53 am 00:53 Mostly Cloudy 10 -12.2 7 -13.9 87 87 Calm 30.37 1028 10 16 0.00 0.00
1:53 am 01:53 Cloudy 11 -11.7 8 -13.3 88 88 Calm 30.37 1029 10 16 0.00 0.00
2:53 am 02:53 Mostly Cloudy 11 -11.7 8 -13.3 88 88 W 6 9 30.37 1028 10 16 0.00 0.00
3:53 am 03:53 Cloudy 12 -11.1 9 -12.8 87 87 Calm 30.36 1028 10 16 0.00 0.00
4:53 am 04:53 Cloudy with Light Snow 12 -11.1 9 -12.8 87 87 Calm 30.37 1029 4 6 0.00 0.00
5:42 am 05:42 Mostly Cloudy 10 -12 9 -13 92 92 W 6 9 30.49 1032 7 11 0.00 0.00
5:53 am 05:53 Mostly Cloudy with Mist and Fog 11 -11.7 8 -13.3 88 88 W 6 9 30.39 1029 6 10 0.00 0.00
6:06 am 06:06 Mostly Clear 11 -11.7 8 -13.3 88 88 undefined N/A 30.49 1033 7 11 0.00 0.00
6:42 am 06:42 Mostly Cloudy 9 -12.8 7 -13.9 92 92 W 3 6 30.52 1033 8 13 0.00 0.00
6:53 am 06:53 Mostly Cloudy 10 -12.2 7 -13.9 87 87 WSW 5 7 30.42 1030 7 11 0.00 0.00
7:02 am 07:02 Partly Cloudy 9 -13 7 -14 92 92 W 3 6 30.52 1033 7 11 0.00 0.00
7:53 am 07:53 Cloudy 13 -10.6 10 -12.2 88 88 SW 5 7 30.43 1031 9 14 0.00 0.00
8:27 am 08:27 Cloudy 17 -8.3 13 -10.6 84 84 WSW 7 11 30.49 1033 8 13 0.00 0.00
8:53 am 08:53 Cloudy 17 -8.3 14 -10 88 88 WSW 9 15 30.45 1031 7 11 0.00 0.00
9:12 am 09:12 Cloudy with Mist and Fog 18 -8 14 -10 86 86 NW 7 11 30.51 1033 6 10 0.00 0.00
9:30 am 09:30 Cloudy 18 -8 14 -10 86 86 W 8 13 30.51 1033 8 13 0.00 0.00
9:53 am 09:53 Mostly Cloudy with Haze 19 -7.2 14 -10 81 81 W 8 13 30.47 1032 6 10 0.00 0.00
10:41 am 10:41 Cloudy with Haze 21 -6.1 15 -9.4 78 78 WNW 8 13 30.51 1033 5 8 0.00 0.00
10:53 am 10:53 Cloudy with Haze 21 -6.1 16 -8.9 81 81 WNW 7 11 30.48 1032 6 10 0.00 0.00
11:18 am 11:18 Cloudy 22 -5.6 16 -8.9 78 78 WNW 7 11 30.51 1033 7 11 0.00 0.00
11:33 am 11:33 Cloudy 22 -5.6 17 -8.3 82 82 NW 7 11 30.51 1033 8 13 0.00 0.00
11:53 am 11:53 Cloudy 22 -5.6 16 -8.9 78 78 WNW 6 9 30.50 1033 8 13 0.00 0.00
12:53 pm 12:53 Cloudy 24 -4.4 16 -8.9 71 71 NW 12 19 30.49 1033 10 16 0.00 0.00
1:53 pm 13:53 Cloudy 24 -4.4 16 -8.9 71 71 WNW 10 17 30.49 1033 10 16 0.00 0.00
2:30 pm 14:30 Partly Cloudy 25 -3.9 17 -8.3 72 72 W 10 17 30.50 1033 10 16 0.00 0.00
2:53 pm 14:53 Partly Cloudy 25 -3.9 17 -8.3 72 72 WSW 12 19 30.49 1032 10 16 0.00 0.00
3:03 pm 15:03 Mostly Cloudy 24 -4.4 17 -8.3 75 75 W 8 13 30.51 1033 10 16 0.00 0.00
3:53 pm 15:53 Cloudy 24 -4.4 17 -8.3 75 75 WSW 9 15 30.48 1032 10 16 0.00 0.00
4:53 pm 16:53 Cloudy 25 -3.9 18 -7.8 75 75 W 12 19 30.47 1032 10 16 0.00 0.00
5:53 pm 17:53 Cloudy 25 -3.9 18 -7.8 75 75 WSW 8 13 30.46 1032 10 16 0.00 0.00
6:28 pm 18:28 Partly Cloudy 21 -6 18 -8 86 86 SW 8 13 30.49 1032 10 16 0.00 0.00
6:53 pm 18:53 Clear 21 -6.1 17 -8.3 85 85 SW 8 13 30.46 1032 10 16 0.00 0.00
7:53 pm 19:53 Clear 21 -6.1 17 -8.3 85 85 SSW 9 15 30.43 1031 10 16 0.00 0.00
8:53 pm 20:53 Clear 20 -6.7 16 -8.9 85 85 SSW 10 17 30.40 1029 10 16 0.00 0.00
9:53 pm 21:53 Clear 22 -5.6 17 -8.3 82 82 SSW 12 19 30.36 1028 10 16 0.00 0.00
10:53 pm 22:53 Clear 17 -8.3 14 -10 88 88 SW 7 11 30.35 1028 10 16 0.00 0.00
11:53 pm 23:53 Clear 23 -5 17 -8.3 78 78 SW 18 30 30.30 1026 10 16 0.00 0.00

Powered by AerisWeather